Wetbulb
66.91 66.60 65.80 64.65 64.92 64.85 64.67 65.19 65.37 66.19 66.69 65.95 65.77 65.57 65.54 65.29 64.53 64.10 63.35 62.78 62.47 61.97
66.35 65.48 65.21 64.42 64.62 65.32 64.92 63.83 63.83 65.11 65.65 66.01 65.93 65.86 66.00 65.18 64.41 63.64 63.65 63.72 62.84 62.46
64.10 64.65 63.49 62.92 63.26 62.88 63.01 62.54 62.73 63.83 65.15 65.13 64.88 64.90 64.92 64.71 64.42 63.11 62.95 62.50 61.87 61.28
58.90 60.11 60.56 61.06 61.11 61.63 61.04 62.43 64.06 64.53 64.19 64.01 63.75 63.65 63.27 62.25 61.19 61.32 59.94 59.80 60.24 58.13
59.59 59.47 59.42 59.70 59.82 59.59 60.80 62.33 63.31 63.67 63.49 62.97 62.61 62.21 62.19 60.94 60.06 60.04 58.29 57.07 57.05 55.78
62.09 62.07 61.57 61.41 61.05 61.41 61.75 61.91 62.15 62.29 62.11 61.57 60.82 60.12 59.60 59.54 58.47 58.07 57.11 56.16 54.94 53.93
61.36 61.67 61.81 61.59 61.38 61.21 61.57 61.05 60.89 61.05 60.48 59.42 57.99 56.88 55.80 55.22 54.27 53.33 52.81 52.81 52.24 51.25
60.28 60.73 60.89 60.48 60.14 59.72 59.76 59.42 58.85 57.25 55.82 55.08 54.13 53.59 53.17 52.62 51.53 50.51 49.50 48.34 48.56 47.94
58.89 59.25 59.55 58.89 58.61 57.89 56.32 55.44 54.85 53.47 52.45 50.70 49.09 42.73 44.56 48.88 49.51 48.34 47.64 45.74 45.41 44.79
57.99 57.81 57.83 56.96 55.72 54.29 53.53 52.63 51.22 50.84 50.38 47.58 45.74 41.93 42.56 42.83 47.31 46.16 44.16 42.21 41.09 40.10
57.65 56.84 55.86 54.78 53.35 51.26 51.50 50.56 49.68 48.22 46.83 44.86 41.14 39.40 39.35 39.27 41.68 39.89 38.24 37.97 37.91 37.39
56.96 54.74 54.01 52.59 51.16 50.94 49.89 48.72 46.97 45.79 44.22 41.91 38.69 38.47 38.10 38.90 37.95 36.02 34.59 34.04 34.04 34.41
56.12 54.46 52.87 51.39 49.80 49.10 48.90 46.20 45.41 43.35 42.44 40.02 39.09 37.67 37.64 37.91 35.49 33.50 33.50 33.14 33.32 35.02
54.71 53.89 50.93 48.30 47.53 45.57 44.77 43.53 42.42 40.61 40.32 39.79 38.96 36.90 38.02 37.81 36.04 34.95 33.68 33.14 32.77 32.96
MSLP
1005.59 1006.23 1006.77 1007.30 1007.85 1008.43 1008.90 1009.23 1009.68 1010.22 1010.70 1011.04 1011.48 1011.90 1012.46 1012.80 1013.19 1013.53 1013.87 1014.04 1014.39 1014.67
1004.97 1005.65 1006.16 1006.67 1007.15 1007.65 1008.10 1008.56 1009.02 1009.51 1009.98 1010.39 1010.81 1011.22 1011.67 1012.03 1012.33 1012.63 1012.95 1013.21 1013.62 1014.01
1004.39 1005.11 1005.77 1006.33 1006.84 1007.25 1007.67 1008.15 1008.63 1009.16 1009.53 1009.97 1010.31 1010.70 1011.09 1011.41 1011.61 1011.88 1012.26 1012.54 1012.99 1013.48
1004.36 1005.01 1005.54 1005.97 1006.39 1006.87 1007.39 1007.83 1008.29 1008.67 1009.11 1009.43 1009.88 1010.13 1010.52 1010.87 1011.25 1011.60 1012.04 1012.36 1012.73 1013.08
1004.00 1004.49 1005.03 1005.59 1006.06 1006.60 1007.16 1007.48 1007.83 1008.24 1008.58 1008.87 1009.37 1009.76 1010.12 1010.48 1010.73 1011.10 1011.67 1012.11 1012.56 1013.00
1003.54 1004.12 1004.63 1005.21 1005.97 1006.42 1006.85 1007.48 1007.65 1007.91 1008.28 1008.71 1009.10 1009.56 1009.85 1010.14 1010.59 1010.97 1011.28 1011.85 1012.55 1013.13
1003.18 1003.83 1004.44 1004.96 1005.51 1005.95 1006.47 1007.06 1007.42 1007.79 1008.16 1008.52 1009.02 1009.48 1009.92 1010.35 1010.91 1011.42 1011.97 1012.35 1013.01 1013.66
1003.16 1003.63 1004.34 1004.79 1005.11 1005.59 1006.28 1006.78 1007.34 1007.91 1008.49 1008.83 1009.13 1009.59 1010.08 1010.64 1011.27 1012.10 1012.53 1013.26 1014.41 1014.42
1002.71 1003.29 1004.08 1004.56 1005.16 1005.70 1006.16 1006.68 1007.44 1008.13 1008.73 1009.35 1009.79 1009.84 1010.14 1010.66 1011.68 1012.32 1013.22 1013.84 1014.76 1015.22
1002.68 1002.98 1003.80 1004.29 1005.16 1005.93 1006.26 1006.39 1007.45 1008.33 1009.10 1009.95 1010.56 1010.46 1010.84 1011.25 1011.68 1012.73 1013.41 1014.23 1015.04 1015.54
1002.78 1003.21 1003.77 1004.17 1004.96 1005.78 1006.33 1006.61 1007.28 1008.44 1009.38 1010.14 1011.16 1011.38 1011.65 1012.28 1012.80 1013.72 1014.17 1014.80 1015.36 1015.76
1002.06 1002.93 1003.56 1004.12 1004.86 1005.60 1006.30 1006.87 1007.56 1008.63 1009.55 1010.54 1011.64 1011.79 1012.08 1012.57 1013.57 1014.80 1015.00 1015.20 1015.65 1015.91
1001.10 1002.20 1002.83 1003.81 1004.62 1005.27 1006.29 1006.94 1007.95 1009.05 1009.94 1010.83 1011.75 1012.18 1012.44 1012.88 1013.83 1014.70 1015.17 1015.46 1015.72 1016.04
1000.59 1001.53 1002.68 1003.76 1004.73 1005.36 1006.42 1007.23 1008.36 1009.53 1010.65 1011.28 1012.00 1012.75 1012.85 1013.12 1013.75 1014.35 1014.85 1015.32 1015.83 1016.12
Wind_Speed
14 10 9 9 7 7 8 8 9 11 11 12 12 12 11 9 9 10 10 12 11 8
12 11 10 9 8 7 7 5 7 10 11 11 12 12 12 9 10 9 10 11 10 8
10 9 7 7 9 8 6 6 6 7 8 8 9 9 10 9 9 8 7 7 9 7
7 7 7 7 6 7 6 7 8 8 8 8 9 9 9 8 8 9 7 5 8 7
7 7 7 6 6 6 6 6 7 7 7 7 7 8 9 9 8 9 8 6 6 6
8 8 7 7 6 6 6 6 6 6 6 6 6 7 6 6 6 6 8 9 10 9
9 9 8 8 8 7 6 6 5 5 5 6 5 5 6 6 7 9 8 7 8 8
12 10 9 8 8 7 7 6 5 6 5 5 6 5 8 9 11 10 10 11 7 8
12 11 11 9 7 8 8 8 7 6 7 7 5 13 15 13 10 11 10 11 8 7
8 10 9 9 9 8 8 11 10 9 9 8 6 15 15 12 11 10 9 9 7 7
7 8 8 9 9 8 8 11 11 11 10 11 7 13 15 14 11 9 9 8 7 7
12 10 10 10 10 9 10 11 11 11 13 12 9 14 16 14 9 7 6 6 5 6
14 14 13 12 11 9 10 11 11 11 10 12 11 12 13 11 6 6 4 4 4 6
14 14 12 12 10 11 11 12 12 12 9 10 9 8 11 10 5 4 4 3 2 1
Wind_Direction
196 200 200 188 181 188 192 200 191 200 205 206 206 210 209 212 213 211 213 214 208 207
190 189 190 183 179 190 192 190 180 188 197 205 210 211 212 217 213 206 210 216 203 207
178 185 178 167 183 185 185 175 174 185 199 203 205 204 206 221 222 206 205 192 195 197
169 172 166 177 180 182 162 169 183 188 188 190 200 193 195 198 180 188 179 189 188 170
157 159 162 173 168 158 170 173 180 181 180 178 186 186 193 193 184 179 177 161 152 136
155 156 157 151 157 160 161 183 169 170 174 178 179 181 184 186 183 181 168 149 138 122
175 174 172 167 169 165 163 168 168 176 178 173 160 149 139 126 119 111 90 76 94 97
187 177 178 180 165 154 162 158 147 130 115 115 126 133 122 113 110 96 88 88 84 90
170 167 176 168 160 162 151 135 129 124 121 107 100 115 116 121 112 109 112 107 93 86
168 163 166 148 147 155 149 129 123 115 112 103 100 112 105 105 115 114 111 110 110 95
178 167 158 145 147 139 140 132 125 117 115 111 98 93 92 85 90 89 90 87 95 98
179 165 158 156 149 143 136 129 121 124 121 116 107 109 108 106 103 109 98 105 105 109
178 171 164 156 150 138 140 128 126 118 120 124 123 120 112 112 115 109 108 87 87 103
174 165 148 137 143 132 130 122 120 117 117 115 118 120 120 120 117 135 126 121 109 130